Wind_Speed
12 12 11 11 11 11 12 13 13 14 14 14 14 14 14 13 12 11 10 9 8 7 5 4 3 4 6 7 10 12 14 16 18 19 19 20 21 22 24 26 27 28 29
14 13 13 12 11 11 11 12 12 13 13 13 13 13 13 13 13 12 10 9 8 7 6 5 4 3 5 7 9 11 12 14 16 17 18 19 20 21 23 25 26 27 28
16 15 14 13 12 12 11 11 12 12 12 12 12 12 12 12 12 12 11 10 8 7 6 5 4 4 5 6 8 10 12 13 15 16 18 19 20 21 23 25 26 27 28
18 17 16 15 14 13 12 12 11 11 12 12 11 11 11 11 11 11 11 10 9 9 7 6 5 4 5 6 7 9 11 12 14 16 17 18 19 21 22 23 25 26 28
19 19 18 17 16 15 14 13 12 11 11 11 11 11 11 11 10 10 10 10 10 9 9 7 6 6 5 6 7 8 9 11 13 15 17 18 19 20 21 23 24 26 27
21 21 20 19 18 17 16 14 13 12 12 11 11 11 11 11 11 10 10 10 10 10 9 8 7 7 6 6 7 7 9 10 12 14 16 17 18 20 21 22 23 25 26
23 23 22 21 20 19 18 16 15 14 13 12 12 12 12 11 11 11 10 10 10 10 10 9 8 7 7 7 7 7 8 10 11 13 15 16 18 19 20 21 22 23 24
25 25 25 24 23 22 20 19 18 16 15 14 14 13 12 12 12 11 11 10 10 10 10 9 9 8 8 9 9 9 9 10 11 12 14 15 17 18 19 20 21 23 24
26 26 27 27 26 25 23 22 21 19 17 16 15 15 14 13 12 12 12 11 11 11 10 10 9 9 9 9 10 10 11 11 12 13 14 15 16 17 19 20 21 23 24
28 28 29 29 28 27 26 25 23 22 20 19 17 16 15 14 14 13 12 12 12 12 11 11 10 10 10 10 10 11 11 12 13 13 14 15 16 17 18 19 20 22 23
30 30 31 30 30 30 29 28 26 25 23 22 20 19 18 17 16 15 14 14 14 13 13 13 12 12 12 12 12 12 13 13 14 15 15 16 17 18 18 19 20 21 22
33 33 33 32 32 32 32 30 29 28 26 25 23 21 20 19 18 17 16 16 15 15 15 15 15 14 14 13 13 14 14 15 15 16 17 17 18 19 19 20 20 21 22
36 35 35 34 34 34 34 33 31 30 29 27 26 24 22 21 20 19 18 18 17 17 17 17 17 16 16 16 15 15 15 16 16 17 17 18 18 19 20 21 22 22 22
40 39 38 37 36 36 36 35 34 32 31 30 28 27 25 24 22 22 21 20 19 19 18 18 18 18 18 18 18 17 17 17 17 18 18 19 19 20 21 22 23 23 24
43 42 41 40 39 38 37 37 36 34 33 32 31 29 28 26 25 24 23 22 21 21 20 19 19 19 19 19 19 19 19 19 19 19 20 20 21 21 22 22 23 24 25
46 45 44 43 42 41 40 39 38 37 35 34 33 32 30 29 28 26 25 24 23 23 22 21 21 21 21 21 21 21 21 21 21 21 22 22 23 23 24 24 25 26 26
48 48 47 46 44 43 42 41 40 39 38 36 35 34 33 31 30 29 27 26 25 25 24 23 23 22 22 22 22 22 22 23 23 23 24 24 25 25 26 27 27 27 27
51 50 49 48 47 46 45 43 42 41 40 38 37 36 35 33 32 31 29 28 27 26 26 25 25 24 24 24 24 24 24 24 25 25 25 26 26 27 28 28 28 29 29
52 52 51 50 50 49 48 46 44 43 42 40 39 38 37 36 34 33 31 30 29 28 27 27 26 26 26 25 25 25 25 26 26 27 28 28 28 28 29 29 29 30 30
52 52 53 52 52 51 50 49 47 45 44 43 41 40 39 38 36 34 33 32 31 30 29 28 28 27 27 26 26 27 27 28 28 29 29 29 30 30 30 31 31 31 32
53 53 53 54 53 53 52 51 49 47 46 45 43 42 41 39 38 36 35 33 32 32 31 30 29 28 28 28 28 28 29 29 29 30 31 31 31 32 32 32 32 33 33
52 52 53 54 54 54 52 52 51 50 48 47 46 45 43 42 40 38 36 35 34 33 32 32 31 30 29 29 29 29 30 30 31 31 32 32 32 33 33 33 34 34 35
51 52 52 53 54 54 53 52 52 51 50 49 48 48 46 44 42 40 39 37 36 35 34 33 32 31 31 31 31 31 31 32 32 33 33 33 34 34 34 35 36 37 37
49 50 51 52 53 53 53 52 51 51 51 50 49 49 48 46 44 42 41 39 38 37 36 35 34 33 33 33 33 33 33 33 33 33 34 34 35 35 36 37 38 38 39
47 48 50 51 52 52 53 52 51 51 51 50 50 49 48 47 45 43 42 41 40 39 37 36 35 34 34 34 33 33 33 34 34 34 35 35 36 37 38 38 39 40 40
44 45 48 49 50 51 52 52 51 50 50 49 49 48 48 47 47 45 44 42 41 40 39 37 36 35 35 34 33 34 35 35 36 36 36 37 37 38 39 39 40 41 41
Wind_Direction
281 285 293 302 311 321 330 338 344 348 352 355 357 0 3 4 3 2 1 1 1 0 357 348 306 256 233 223 223 227 228 224 224 227 230 233 236 236 235 236 236 237 238
275 278 283 291 300 309 319 329 337 343 347 350 352 355 358 1 3 2 0 360 359 357 354 345 323 286 251 235 231 231 231 230 229 231 232 235 237 239 238 240 241 241 242
271 273 277 282 289 296 306 316 326 334 340 342 346 350 354 358 0 1 360 358 356 353 349 340 323 295 262 246 240 238 236 235 234 234 235 236 239 241 241 242 243 243 244
266 269 271 276 281 286 293 302 312 322 330 334 337 343 348 351 354 355 354 353 350 346 341 334 322 299 276 258 249 245 242 240 239 239 238 238 240 242 245 248 247 246 247
265 265 267 270 274 279 284 290 299 308 317 324 327 331 336 340 343 346 347 346 343 339 335 328 318 303 288 273 262 255 250 246 244 243 243 244 246 248 250 252 252 252 252
264 264 263 265 268 272 276 281 287 294 303 310 315 317 322 327 331 334 337 339 338 335 331 325 315 304 293 286 277 266 260 255 251 250 250 250 252 255 255 256 256 256 256
264 263 262 261 263 266 270 273 278 283 290 297 303 308 312 316 320 323 325 329 332 331 329 326 319 309 297 292 286 279 271 263 259 257 255 255 256 258 258 259 259 258 258
264 263 261 260 260 262 265 268 271 275 280 285 291 297 301 306 309 313 316 317 321 325 324 321 317 311 304 296 291 286 278 273 268 264 262 260 259 260 260 260 260 260 260
264 263 261 259 259 259 262 264 266 269 273 277 282 287 292 297 301 303 306 307 310 316 319 317 315 310 307 300 293 288 283 277 273 271 269 268 266 265 265 264 263 262 263
265 263 262 260 258 258 259 261 263 265 267 271 275 279 283 287 291 295 298 299 300 303 307 308 307 305 304 302 297 291 287 282 279 277 275 273 272 270 270 270 270 267 266
264 263 261 260 259 258 257 258 260 262 263 266 268 272 276 279 283 286 290 292 294 296 297 298 298 298 299 300 299 294 289 284 282 282 281 279 277 275 274 273 273 271 270
264 263 261 259 258 257 257 257 258 259 261 262 264 266 269 273 276 280 283 286 288 291 293 293 292 292 293 294 296 296 292 288 285 284 285 284 282 280 279 278 276 274 273
263 262 260 259 257 256 256 255 255 256 258 259 260 262 264 267 270 273 277 281 283 286 288 289 288 288 288 289 291 292 292 291 289 288 288 287 286 284 282 281 280 278 276
262 261 260 258 257 255 254 254 254 254 256 257 258 259 261 263 266 268 271 275 279 281 284 285 285 286 286 286 287 288 290 290 290 289 289 289 289 288 286 284 283 281 279
261 260 259 257 256 255 253 252 253 253 254 254 255 256 258 260 262 264 267 270 273 276 279 281 282 283 284 285 286 287 288 289 289 289 289 289 289 289 288 287 285 283 282
259 258 257 256 255 254 252 251 251 252 252 252 253 254 256 257 259 262 265 267 269 272 275 277 280 282 283 284 285 286 286 288 289 290 290 289 289 288 288 288 287 286 283
257 255 254 254 253 252 251 250 249 250 250 251 252 253 254 255 257 260 262 264 267 269 272 274 277 280 282 283 283 284 285 286 288 290 291 291 290 289 289 288 287 286 285
255 253 251 251 250 250 249 248 248 248 248 249 250 251 252 254 255 258 260 262 265 267 269 272 274 278 280 281 282 283 285 286 288 290 291 293 293 292 291 289 288 287 286
254 251 249 248 248 247 246 246 245 246 246 247 247 248 250 252 254 256 258 260 263 265 266 269 272 275 278 279 281 283 285 287 288 290 292 293 294 294 293 292 290 288 287
253 251 248 246 245 245 244 244 243 244 244 245 246 247 249 250 252 254 256 258 260 263 265 267 270 273 275 278 281 284 286 287 289 290 292 292 293 294 294 293 292 290 289
252 251 248 245 243 242 243 242 242 242 242 244 244 245 246 248 250 251 253 255 258 260 263 265 268 271 274 277 280 284 286 288 289 291 292 292 293 293 293 293 292 291 290
252 250 247 244 242 241 241 241 241 240 240 241 242 243 243 245 247 249 250 253 257 259 261 264 266 270 273 277 280 283 286 289 290 292 292 292 292 293 294 294 293 292 292
252 249 246 243 241 240 240 239 240 239 238 239 240 241 242 243 245 247 249 252 255 258 260 263 266 269 273 277 279 282 285 289 291 292 292 292 292 293 293 294 294 294 294
251 249 246 242 240 239 239 239 238 238 237 238 239 240 241 242 243 246 248 251 253 256 259 262 265 268 272 276 279 282 285 288 289 290 291 291 292 293 293 294 295 295 295
249 247 245 242 239 238 237 237 237 237 237 237 238 239 240 241 243 245 248 249 252 254 257 260 263 267 270 275 278 281 284 286 288 289 290 291 293 294 294 295 295 295 295
250 247 244 241 239 237 236 235 235 235 236 236 237 237 238 240 242 244 246 248 251 253 255 258 261 265 269 273 276 280 283 285 286 289 290 291 293 294 295 296 296 296 296
Height
5825 5824 5823 5821 5819 5817 5815 5812 5810 5807 5804 5801 5798 5795 5792 5789 5787 5784 5782 5780 5778 5777 5776 5775 5775 5775 5775 5776 5778 5779 5781 5784 5786 5789 5791 5793 5795 5797 5799 5802 5804 5807 5809
5821 5821 5820 5818 5817 5815 5813 5811 5808 5805 5803 5800 5797 5795 5792 5789 5786 5784 5782 5780 5778 5777 5776 5775 5774 5774 5774 5775 5776 5777 5778 5780 5782 5785 5787 5788 5790 5792 5794 5796 5798 5800 5802
5818 5817 5816 5815 5814 5812 5810 5808 5806 5804 5801 5799 5796 5794 5791 5789 5786 5784 5782 5780 5778 5777 5775 5774 5773 5772 5772 5773 5773 5774 5775 5777 5779 5780 5782 5784 5786 5787 5789 5790 5792 5794 5795
5813 5813 5812 5811 5810 5809 5807 5806 5804 5802 5800 5797 5795 5793 5791 5788 5786 5784 5781 5779 5777 5776 5774 5773 5772 5771 5770 5770 5771 5771 5772 5773 5774 5776 5778 5779 5781 5782 5783 5784 5785 5787 5788
5808 5808 5807 5807 5806 5805 5804 5803 5801 5799 5797 5795 5793 5791 5789 5787 5785 5783 5781 5778 5776 5774 5773 5771 5770 5769 5768 5768 5768 5768 5769 5769 5770 5772 5773 5775 5776 5777 5777 5778 5779 5780 5781
5803 5802 5802 5802 5801 5801 5800 5799 5797 5796 5794 5793 5791 5789 5787 5785 5783 5781 5779 5777 5775 5773 5771 5769 5768 5767 5766 5766 5765 5765 5765 5766 5767 5767 5769 5770 5770 5771 5771 5772 5772 5773 5774
5797 5796 5796 5796 5796 5796 5795 5794 5793 5792 5791 5789 5788 5786 5784 5783 5781 5779 5777 5775 5773 5771 5769 5767 5766 5765 5764 5764 5763 5763 5762 5762 5763 5764 5764 5765 5765 5766 5766 5766 5766 5766 5767
5790 5790 5790 5790 5790 5789 5789 5789 5788 5787 5786 5785 5784 5782 5781 5779 5778 5776 5774 5773 5771 5769 5767 5766 5764 5763 5762 5761 5761 5760 5760 5759 5759 5760 5760 5760 5760 5760 5760 5760 5760 5760 5760
5783 5783 5782 5782 5782 5782 5783 5783 5782 5782 5781 5780 5779 5778 5777 5776 5774 5773 5771 5770 5768 5767 5765 5764 5762 5761 5760 5759 5758 5757 5757 5756 5756 5756 5755 5755 5755 5755 5754 5754 5754 5754 5754
5775 5775 5774 5775 5775 5775 5775 5775 5776 5775 5775 5775 5774 5773 5772 5771 5770 5769 5768 5766 5765 5764 5763 5761 5760 5758 5757 5756 5755 5754 5753 5752 5752 5751 5751 5750 5749 5749 5748 5748 5747 5747 5746
5766 5766 5766 5766 5766 5767 5767 5768 5768 5768 5768 5768 5768 5767 5767 5766 5765 5764 5763 5762 5761 5760 5759 5758 5756 5755 5754 5753 5751 5750 5749 5748 5747 5747 5746 5745 5744 5743 5743 5742 5741 5741 5740
5756 5756 5756 5757 5757 5757 5758 5759 5759 5760 5761 5761 5761 5761 5760 5760 5759 5759 5758 5757 5756 5755 5754 5753 5752 5751 5750 5748 5747 5746 5745 5744 5743 5742 5741 5740 5739 5738 5737 5736 5735 5734 5733
5745 5746 5746 5746 5747 5747 5748 5749 5750 5751 5752 5752 5753 5753 5753 5753 5753 5753 5752 5752 5751 5750 5749 5748 5747 5746 5745 5744 5743 5741 5740 5739 5737 5736 5735 5734 5733 5731 5730 5729 5728 5727 5726
5732 5733 5734 5735 5736 5736 5737 5738 5740 5741 5742 5743 5744 5745 5745 5745 5746 5746 5745 5745 5745 5744 5743 5742 5741 5740 5739 5738 5737 5736 5735 5733 5732 5731 5729 5728 5726 5725 5724 5722 5721 5720 5719
5718 5720 5721 5722 5724 5725 5726 5727 5729 5731 5732 5733 5734 5735 5736 5737 5737 5738 5738 5738 5738 5737 5736 5736 5735 5734 5733 5732 5731 5730 5729 5728 5726 5725 5723 5722 5720 5719 5717 5716 5714 5713 5711
5703 5705 5706 5708 5710 5712 5714 5716 5717 5719 5721 5722 5724 5725 5727 5728 5728 5729 5729 5729 5730 5730 5729 5729 5728 5727 5726 5725 5724 5723 5722 5721 5720 5718 5717 5715 5713 5712 5710 5708 5707 5705 5704
5687 5689 5691 5693 5695 5698 5700 5702 5705 5707 5709 5711 5713 5714 5716 5717 5718 5719 5720 5720 5721 5721 5721 5721 5720 5720 5719 5718 5717 5716 5715 5714 5712 5711 5709 5708 5706 5704 5703 5701 5699 5697 5695
5668 5671 5674 5677 5680 5683 5686 5689 5691 5694 5697 5699 5701 5703 5705 5706 5708 5709 5710 5711 5712 5712 5712 5712 5712 5712 5711 5710 5709 5708 5707 5706 5705 5703 5702 5700 5698 5696 5694 5692 5690 5688 5687
5649 5653 5656 5660 5663 5666 5670 5673 5677 5680 5683 5686 5689 5691 5693 5695 5697 5698 5700 5701 5702 5703 5703 5703 5703 5703 5703 5702 5701 5700 5699 5698 5697 5695 5693 5691 5689 5687 5685 5683 5681 5679 5677
5631 5634 5637 5641 5645 5649 5653 5658 5662 5666 5669 5673 5676 5679 5681 5683 5685 5688 5689 5691 5692 5693 5693 5694 5694 5694 5694 5693 5692 5692 5690 5689 5688 5686 5684 5682 5680 5678 5676 5674 5672 5669 5667
5612 5615 5618 5623 5627 5632 5637 5642 5646 5650 5655 5659 5662 5665 5668 5671 5673 5676 5678 5679 5681 5682 5683 5684 5684 5684 5684 5684 5683 5682 5681 5680 5678 5677 5675 5673 5671 5668 5666 5664 5661 5659 5657
5593 5596 5600 5604 5609 5614 5620 5625 5630 5635 5639 5644 5647 5651 5654 5657 5660 5663 5666 5668 5670 5671 5672 5673 5674 5674 5674 5674 5673 5673 5671 5670 5668 5667 5665 5663 5660 5658 5656 5654 5651 5649 5646
5574 5578 5582 5586 5591 5597 5602 5607 5613 5619 5624 5628 5632 5636 5640 5644 5647 5651 5653 5656 5658 5659 5661 5662 5663 5663 5664 5663 5663 5662 5661 5660 5658 5656 5654 5652 5650 5648 5645 5643 5640 5638 5635
5556 5559 5564 5568 5573 5579 5585 5590 5596 5602 5608 5613 5617 5622 5626 5630 5634 5637 5640 5643 5645 5647 5649 5651 5652 5652 5652 5652 5652 5651 5650 5649 5647 5645 5643 5641 5639 5637 5634 5632 5629 5626 5623
5538 5541 5546 5550 5556 5561 5567 5573 5579 5585 5591 5597 5602 5607 5612 5616 5620 5624 5627 5630 5633 5635 5637 5639 5640 5641 5641 5641 5641 5640 5639 5638 5636 5634 5632 5630 5628 5626 5623 5620 5617 5614 5611
5521 5524 5528 5533 5538 5544 5550 5556 5563 5569 5575 5581 5587 5592 5597 5602 5606 5610 5614 5617 5620 5622 5624 5626 5628 5629 5629 5629 5629 5628 5628 5626 5625 5623 5621 5619 5616 5614 5611 5608 5605 5602 5598